TimeCST,TemperatureF,Dew PointF,Humidity,Sea Level PressureIn,VisibilityMPH,Wind Direction,Wind SpeedMPH,Gust SpeedMPH,PrecipitationIn,Events,Conditions,WindDirDegrees,DateUTC
12:55 AM,21.9,17.1,82,30.37,10.0,NNW,9.2,-,N/A,,Clear,340,2013-02-15 06:55:00
1:55 AM,21.0,15.1,78,30.39,10.0,North,10.4,-,N/A,,Clear,350,2013-02-15 07:55:00
2:55 AM,19.9,15.1,81,30.40,10.0,NW,8.1,-,N/A,,Clear,320,2013-02-15 08:55:00
3:55 AM,17.1,12.9,84,30.40,10.0,West,5.8,-,N/A,,Clear,280,2013-02-15 09:55:00
4:55 AM,18.0,14.0,84,30.40,10.0,West,6.9,-,N/A,,Clear,260,2013-02-15 10:55:00
5:55 AM,15.8,12.2,86,30.37,10.0,West,6.9,-,N/A,,Clear,280,2013-02-15 11:55:00
6:55 AM,16.0,12.0,84,30.43,10.0,West,8.1,-,N/A,,Clear,270,2013-02-15 12:55:00
7:55 AM,17.1,12.9,84,30.45,10.0,West,6.9,-,N/A,,Clear,270,2013-02-15 13:55:00
8:55 AM,21.9,16.0,78,30.45,10.0,West,6.9,-,N/A,,Clear,260,2013-02-15 14:55:00
9:55 AM,28.0,19.0,69,30.45,10.0,WNW,6.9,-,N/A,,Clear,290,2013-02-15 15:55:00
10:55 AM,30.9,17.1,57,30.43,10.0,NW,6.9,-,N/A,,Partly Cloudy,310,2013-02-15 16:55:00
11:55 AM,35.1,16.0,46,30.40,10.0,NNW,10.4,-,N/A,,Mostly Cloudy,340,2013-02-15 17:55:00
12:55 PM,35.1,16.0,46,30.39,10.0,West,10.4,-,N/A,,Mostly Cloudy,270,2013-02-15 18:55:00
1:55 PM,37.0,16.0,42,30.35,10.0,WNW,13.8,-,N/A,,Overcast,300,2013-02-15 19:55:00
2:55 PM,37.0,12.9,37,30.32,10.0,WNW,12.7,-,N/A,,Mostly Cloudy,300,2013-02-15 20:55:00
3:55 PM,39.0,12.9,34,30.31,10.0,WNW,13.8,23.0,N/A,,Partly Cloudy,300,2013-02-15 21:55:00
4:55 PM,37.9,15.1,39,30.32,10.0,NW,16.1,24.2,N/A,,Overcast,310,2013-02-15 22:55:00
5:55 PM,34.0,12.9,42,30.34,10.0,NNW,19.6,26.5,N/A,,Mostly Cloudy,330,2013-02-15 23:55:00
6:55 PM,30.0,10.0,43,30.37,10.0,NNW,13.8,23.0,N/A,,Scattered Clouds,340,2013-02-16 00:55:00
7:55 PM,28.0,14.0,56,30.39,10.0,NNW,12.7,-,N/A,,Clear,340,2013-02-16 01:55:00
8:55 PM,25.0,17.1,72,30.41,10.0,NNW,10.4,-,N/A,,Clear,340,2013-02-16 02:55:00
9:55 PM,21.9,16.0,78,30.41,10.0,NNW,5.8,-,N/A,,Clear,330,2013-02-16 03:55:00
10:55 PM,21.0,14.0,74,30.40,10.0,NNW,8.1,-,N/A,,Clear,340,2013-02-16 04:55:00
11:55 PM,19.9,12.9,74,30.40,10.0,NNW,8.1,-,N/A,,Clear,330,2013-02-16 05:55:00